Weather History for New Haven, CT

Change the Weather History Date:

Friday, January 11, 2013

  Actual Average Record
Temperature  
Mean Temperature 36 °F -  
Max Temperature 46 °F 34 °F 57 °F (1983)
Min Temperature 28 °F 22 °F 0 °F (1982)
Degree Days  
Heating Degree Days 28    
Moisture  
Dew Point 33 °F    
Average Humidity 79    
Maximum Humidity 93    
Minimum Humidity 62    
Precipitation  
Precipitation 0.23 in - - ()
Sea Level Pressure  
Sea Level Pressure 30.33 in    
Wind  
Wind Speed 4 mph (East)    
Max Wind Speed 10 mph    
Max Gust Speed -    
Visibility 8 miles    
Events Rain    
Averages and records for this station are not official NWS values.
T = Trace of Precipitation, MM = Missing Value Source: NWS Daily Summary

Daily Weather History Graph

Daily Weather History Graph

Search for Another Location

Airport:

Trip Planner

Search our weather history database for the weather conditions in past years. The results will help you decide how hot, cold, wet, or windy it might be!

Date:

Astronomy

Jan. 11, 2013 Rise Set
Actual Time 7:16 AM EST 4:43 PM EST
Civil Twilight 6:45 AM EST 5:13 PM EST
Nautical Twilight 6:11 AM EST 5:48 PM EST
Astronomical Twilight 5:38 AM EST 6:21 PM EST
Moon 6:46 AM EST (1/11) 4:58 PM EST (1/11)
Length of Visible Light 10h 28m
Length of Day
9h 26m
Waning Crescent, 0% of the Moon is Illuminated
Jan 11
Waning Crescent
Jan 11
New
Jan 18
First Quarter
Jan 26
Full
Feb 3
Last Quarter

Hourly Weather History & Observations

Time (EST) Temp. Windchill Dew Point Humidity Pressure Visibility Wind Dir Wind Speed Gust Speed Precip Events Conditions
12:53 AM 34.0 °F 29.8 °F 24.1 °F 67% 30.53 in 10.0 mi WNW 4.6 mph - N/A   Clear
1:53 AM 30.0 °F - 23.0 °F 75% 30.53 in 10.0 mi Calm Calm - N/A   Clear
2:53 AM 32.0 °F - 24.1 °F 73% 30.51 in 10.0 mi Calm Calm - N/A   Clear
3:53 AM 30.0 °F 26.5 °F 21.9 °F 72% 30.50 in 10.0 mi North 3.5 mph - N/A   Clear
4:53 AM 28.0 °F - 21.9 °F 78% 30.47 in 10.0 mi Calm Calm - N/A   Clear
5:53 AM 30.9 °F - 24.1 °F 76% 30.48 in 10.0 mi Calm Calm - N/A   Clear
6:53 AM 28.9 °F 25.2 °F 21.9 °F 75% 30.48 in 10.0 mi NE 3.5 mph - N/A   Mostly Cloudy
7:53 AM 32.0 °F 27.5 °F 25.0 °F 75% 30.49 in 10.0 mi NNE 4.6 mph - N/A   Overcast
8:53 AM 35.1 °F - 25.0 °F 67% 30.50 in 10.0 mi Calm Calm - N/A   Overcast
9:53 AM 37.0 °F 31.6 °F 25.0 °F 62% 30.47 in 10.0 mi East 6.9 mph - N/A   Overcast
10:53 AM 39.0 °F 35.7 °F 27.0 °F 62% 30.46 in 10.0 mi East 4.6 mph - N/A   Overcast
11:53 AM 39.9 °F 35.8 °F 28.0 °F 63% 30.40 in 10.0 mi ENE 5.8 mph - N/A   Overcast
12:53 PM 39.9 °F 35.8 °F 30.0 °F 68% 30.37 in 10.0 mi East 5.8 mph - N/A   Overcast
1:53 PM 41.0 °F 37.1 °F 30.9 °F 67% 30.35 in 10.0 mi East 5.8 mph - N/A   Overcast
2:53 PM 41.0 °F 39.0 °F 33.8 °F 76% 30.33 in 10.0 mi East 3.5 mph - N/A   Overcast
3:53 PM 41.0 °F 39.0 °F 36.0 °F 82% 30.31 in 10.0 mi ENE 3.5 mph - 0.01 in   Overcast
4:53 PM 42.1 °F 39.2 °F 37.0 °F 82% 30.28 in 10.0 mi East 4.6 mph - 0.00 in Rain Light Rain
5:53 PM 42.1 °F 36.6 °F 37.9 °F 85% 30.26 in 8.0 mi East 9.2 mph - 0.01 in Rain Light Rain
6:11 PM 42.8 °F 38.0 °F 37.4 °F 81% 30.25 in 8.0 mi East 8.1 mph - 0.01 in Rain Light Rain
6:53 PM 43.0 °F 37.2 °F 39.0 °F 86% 30.23 in 7.0 mi East 10.4 mph - 0.02 in Rain Light Rain
7:02 PM 42.8 °F 37.5 °F 39.2 °F 87% 30.23 in 7.0 mi East 9.2 mph - 0.00 in Rain Light Rain
7:49 PM 42.8 °F 37.5 °F 39.2 °F 87% 30.20 in 6.0 mi ESE 9.2 mph - 0.04 in Rain Rain
7:53 PM 43.0 °F 37.2 °F 39.9 °F 89% 30.20 in 7.0 mi ESE 10.4 mph - 0.04 in Rain Rain
8:22 PM 42.8 °F 38.0 °F 39.2 °F 87% 30.19 in 6.0 mi East 8.1 mph - 0.05 in Rain Rain
8:39 PM 44.6 °F 40.2 °F 41.0 °F 87% 30.21 in 5.0 mi East 8.1 mph - 0.08 in Rain Rain
8:53 PM 44.1 °F 39.5 °F 41.0 °F 89% 30.20 in 5.0 mi ESE 8.1 mph - 0.11 in Rain Rain
9:31 PM 44.6 °F 39.7 °F 42.8 °F 93% 30.18 in 4.0 mi ESE 9.2 mph - 0.03 in Rain Light Rain
9:37 PM 44.6 °F 39.7 °F 42.8 °F 93% 30.18 in 5.0 mi ESE 9.2 mph - 0.03 in   Overcast
9:53 PM 44.1 °F 40.8 °F 42.1 °F 93% 30.19 in 5.0 mi East 5.8 mph - 0.03 in   Overcast
10:53 PM 45.0 °F 41.2 °F 43.0 °F 93% 30.17 in 4.0 mi ESE 6.9 mph - 0.01 in Rain Light Rain
11:53 PM 46.0 °F 41.9 °F 43.0 °F 89% 30.13 in 6.0 mi East 8.1 mph - 0.00 in   Overcast